User: anonymous   Login
Location: Donald C. Martin Observatory
(38.3885°N, 82.3916°W)
Time: 13:54:04
(UTC-05:00)
Language:

Cosmos 1484 Rocket - Orbit

View from above orbital plane
View from above orbital plane
View from above satellite
View from above satellite

Ground track
Ground track

The orbit data is extracted from the following two-line orbital elements,

1 14208U 83075B   17347.96108833 +.00000510 +00000-0 +34226-4 0  9995
2 14208 097.3404 351.1605 0037979 229.2541 130.5390 15.10577590874342
Epoch (UTC): 13 December 2017 23:03:58
Eccentricity: 0.0037979
inclination: 97.3404°
perigee height: 508 km
apogee height: 560 km
right ascension of ascending node: 351.1605°
argument of perigee: 229.2541°
revolutions per day: 15.10577590
mean anomaly at epoch: 130.5390°
orbit number at epoch: 87434

The dashed part of the orbit path shows where the satellite is in the earth's shadow,  

DLR